Flag for Australia Weather past 2 weeks in Campbelltown, New South Wales, Australia

Now
49 °F

Cool.


Feels Like: 49 °F
Forecast: 33 / 58 °F
Wind: No wind

Location: Camden Airport

Current Time: Jul 5, 2015 at 8:24:13 PM

Latest Report: Jul 5, 2015 at 6:00 PM


Visibility: N/A

Pressure: 30.07 "Hg

Humidity: 64%

Dew point: 38 °F

Location of CampbelltownLocation

Historic Weather in Campbelltown — Graph

°F

Campbelltown temperature yesterday

Maximum temperature yesterday: 61 °F (at 3:00 PM)
Minimum temperature yesterday: 28 °F (at 6:00 AM)
Average temperature yesterday: 41 °F

Past Weeks' High & Low Weather Summary

 TemperatureHumidityPressure
High67 °F (Jun 27, 3:00 PM)100% (Jun 22, 2:00 AM)30.53 "Hg (Jun 22, 2:00 AM)
Low28 °F (Jul 4, 6:00 AM)29% (Jul 4, 3:00 PM)30.06 "Hg (Jul 2, 2:00 PM)
Average48 °F80%30.31 "Hg
* Reported Jun 20 6:00 PM — Jul 5 6:00 PM, Campbelltown, Weather by CustomWeather, © 2015

Note: Actual official high and low records may vary slightly from our data, if they occured in-between our weather recording intervals... More about our weather records

Advertising

Campbelltown weather history for previous 24 hours

 ConditionsComfort  
Time TempWeatherWind HumidityBarometerVisibility
6:00 PM
Sun, Jul 5
49 °FCool.No wind64%30.07 "HgN/A
5:00 PM54 °FCool.5 mph55%30.06 "HgN/A
3:00 PM62 °FRefreshingly cool.7 mph34%30.06 "HgN/A
2:00 PM62 °FMild.5 mph33%30.07 "HgN/A
12:00 PM58 °FRefreshingly cool.2 mph46%30.11 "HgN/A
11:00 AM53 °FCool.1 mph56%30.16 "HgN/A
9:00 AM40 °FQuite cool.No wind90%30.19 "HgN/A
8:00 AM33 °FChilly.No wind100%30.19 "HgN/A
6:00 AM31 °FChilly.No wind100%30.17 "Hg0 mi
5:00 AM31 °FChilly.No wind98%30.16 "HgN/A
3:00 AM33 °FChilly.1 mph98%30.17 "Hg1 mi
2:00 AM34 °FChilly.No wind98%30.18 "HgN/A
12:00 AM34 °FChilly.No wind95%30.19 "HgN/A
11:00 PM
Sat, Jul 4
35 °FChilly.No wind93%30.19 "HgN/A
9:00 PM39 °FChilly.No wind85%30.20 "HgN/A
8:00 PM40 °FQuite cool.No wind83%30.20 "HgN/A
Weather by CustomWeather, © 2015

See weather overviewHow to use our weather pages